Change the Weather History Date:

Friday, November 22, 2013

  Actual Average Record
Temperature  
Mean Temperature 48 °F -  
Max Temperature 52 °F 45 °F 65 °F (1963)
Min Temperature 43 °F 31 °F 15 °F (2014)
Degree Days  
Heating Degree Days 18    
Moisture  
Dew Point 43 °F    
Average Humidity 82    
Maximum Humidity 93    
Minimum Humidity 71    
Precipitation  
Precipitation 0.08 in - - ()
Sea Level Pressure  
Sea Level Pressure 30.11 in    
Wind  
Wind Speed 3 mph (WSW)    
Max Wind Speed 9 mph    
Max Gust Speed -    
Visibility 7 miles    
Events Rain    
Averages and records for this station are not official NWS values.
T = Trace of Precipitation, MM = Missing Value Source: NWS Daily Summary

Daily Weather History Graph

Daily Weather History Graph

Search for Another Location

Airport or City:

Trip Planner

Search our weather history database for the weather conditions in past years. The results will help you decide how hot, cold, wet, or windy it might be!

Date:

Astronomy

Nov. 22, 2013 Rise Set
Actual Time 6:50 AM EST 4:29 PM EST
Civil Twilight 6:20 AM EST 4:59 PM EST
Nautical Twilight 5:46 AM EST 5:33 PM EST
Astronomical Twilight 5:13 AM EST 6:06 PM EST
Moon 8:59 PM EST 10:31 AM EST
Length of Visible Light 10h 38m
Length of Day
9h 38m
Waning Gibbous, 78% of the Moon is Illuminated
Nov 22
Waning Gibbous
Nov 25
Last Quarter
Dec 2
New
Dec 9
First Quarter
Dec 17
Full

Hourly Weather History & Observations

Time (EST) Temp. Windchill Dew Point Humidity Pressure Visibility Wind Dir Wind Speed Gust Speed Precip Events Conditions
12:53 AM 43.0 °F - 35.1 °F 74% 30.37 in 10.0 mi Calm Calm - N/A   Overcast
1:53 AM 45.0 °F 43.5 °F 37.9 °F 76% 30.36 in 10.0 mi WSW 3.5 mph - 0.00 in   Overcast
2:46 AM 46.4 °F 43.5 °F 37.4 °F 71% 30.33 in 10.0 mi SW 5.8 mph - N/A   Overcast
2:53 AM 46.9 °F - 37.9 °F 71% 30.32 in 10.0 mi SSW 4.6 mph - N/A   Overcast
3:53 AM 46.9 °F - 37.9 °F 71% 30.29 in 10.0 mi Calm Calm - N/A   Overcast
4:53 AM 46.9 °F - 39.0 °F 74% 30.28 in 10.0 mi WSW 3.5 mph - N/A   Overcast
5:53 AM 45.0 °F 43.5 °F 39.0 °F 80% 30.25 in 10.0 mi SE 3.5 mph - 0.00 in   Overcast
6:53 AM 45.0 °F - 39.9 °F 82% 30.23 in 8.0 mi Calm Calm - 0.00 in Rain Light Rain
7:05 AM 44.6 °F - 39.2 °F 81% 30.22 in 6.0 mi Calm Calm - 0.00 in Rain Light Rain
7:53 AM 45.0 °F - 41.0 °F 86% 30.21 in 3.0 mi Calm Calm - 0.01 in Rain Light Rain
8:53 AM 46.0 °F - 42.1 °F 86% 30.19 in 4.0 mi Calm Calm - 0.01 in Rain Light Rain
9:00 AM 46.4 °F - 42.8 °F 87% 30.18 in 3.0 mi Calm Calm - 0.00 in Rain Rain
9:08 AM 46.4 °F - 42.8 °F 87% 30.18 in 2.0 mi Calm Calm - 0.00 in Rain Light Rain
9:26 AM 46.4 °F 45.2 °F 44.6 °F 93% 30.17 in 5.0 mi WSW 3.5 mph - 0.01 in Rain Light Rain
9:43 AM 48.2 °F - 44.6 °F 87% 30.16 in 8.0 mi SW 3.5 mph - 0.01 in   Overcast
9:53 AM 48.0 °F - 44.1 °F 86% 30.17 in 6.0 mi SW 5.8 mph - 0.01 in Rain Light Rain
10:07 AM 48.2 °F - 44.6 °F 87% 30.15 in 2.0 mi SW 4.6 mph - 0.00 in Rain Light Rain
10:53 AM 48.9 °F - 45.0 °F 86% 30.12 in 6.0 mi WSW 6.9 mph - 0.01 in Rain Light Rain
11:53 AM 48.9 °F - 45.0 °F 86% 30.09 in 6.0 mi Variable 6.9 mph - 0.00 in   Overcast
12:53 PM 50.0 °F - 46.0 °F 86% 30.05 in 6.0 mi WSW 8.1 mph - 0.01 in   Overcast
1:15 PM 51.8 °F - 46.4 °F 82% 30.05 in 7.0 mi West 8.1 mph - N/A   Overcast
1:49 PM 51.8 °F - 46.4 °F 82% 30.03 in 7.0 mi WSW 5.8 mph - N/A   Overcast
1:53 PM 51.1 °F - 46.0 °F 83% 30.04 in 7.0 mi West 5.8 mph - N/A   Overcast
2:53 PM 52.0 °F - 45.0 °F 77% 30.02 in 9.0 mi Variable 5.8 mph - 0.01 in   Overcast
3:12 PM 51.8 °F - 44.6 °F 76% 30.02 in 9.0 mi WSW 4.6 mph - N/A   Mostly Cloudy
3:53 PM 51.1 °F - 45.0 °F 80% 30.01 in 9.0 mi Calm Calm - N/A   Clear
4:53 PM 46.9 °F - 44.1 °F 90% 30.00 in 7.0 mi Calm Calm - N/A   Clear
5:53 PM 46.0 °F - 44.1 °F 93% 29.98 in 6.0 mi Calm Calm - 0.01 in   Mostly Cloudy
6:53 PM 46.9 °F - 44.1 °F 90% 29.96 in 6.0 mi Calm Calm - N/A   Mostly Cloudy
7:53 PM 46.9 °F - 44.1 °F 90% 29.95 in 6.0 mi Calm Calm - N/A   Overcast
8:27 PM 48.2 °F - 44.6 °F 87% 29.94 in 8.0 mi Calm Calm - N/A   Mostly Cloudy
8:53 PM 50.0 °F - 45.0 °F 83% 29.94 in 9.0 mi Calm Calm - N/A   Overcast
9:41 PM 51.8 °F - 44.6 °F 76% 29.91 in 9.0 mi West 4.6 mph - N/A   Overcast
9:53 PM 51.1 °F - 45.0 °F 80% 29.91 in 9.0 mi Calm Calm - N/A   Overcast
10:53 PM 50.0 °F - 45.0 °F 83% 29.90 in 8.0 mi WSW 5.8 mph - 0.01 in   Overcast
11:53 PM 52.0 °F - 44.1 °F 74% 29.89 in 10.0 mi West 9.2 mph - N/A   Overcast